Retour au catalogue

DELTA 1 DEB

ActifPO
NORAD 42632·DEBRIS·🇺🇸 United States

Lancé Jun 12, 1975 depuis Vandenberg Space Force Base

Loading…

Prochains Passages (prochaines 24 heures)

TLE

FraisSource: Space-Track

Époque: Sep 13, 2026, 13:57 UTC

1 42632U 75052LR  26256.58154472  .00000162  00000-0  71692-3 0  9990
2 42632  99.5742 306.8422 0400795 201.6362 156.7368 12.70130511551542

Suivez DELTA 1 DEB en temps réel avec AllMySat

Download on the App Store